Location: Losili
(4.4086°N, 32.7049°E)
Time: 15:20:50
(UTC+00:00)

Daily predictions for brighter satellites

Satellite Brightness Start Highest point End
(mag) Time Altitude Azimuth Time Altitude Azimuth Time Altitude Azimuth
CORIOLIS 4.4 15:58:50 10° S 16:04:15 77° WSW 16:09:37 10° NNW
YAOGAN 1 3.7 16:02:58 10° SE 16:06:22 23° ENE 16:09:45 10° NNE
ISS -0.8 16:07:27 10° W 16:09:47 18° NW 16:12:07 10° N
GPS 2-04 Rocket1 4.2 16:08:27 10° S 16:11:04 18° SE 16:13:46 10° E
Ariane H10-3 3.7 16:14:10 10° WSW 16:18:18 24° S 16:20:19 10° SE
CSL-04 Rocket 4.1 16:13:56 10° SE 16:18:56 39° ENE 16:23:58 10° N
SAR-Lupe-2 4.2 16:16:36 10° NE 16:19:49 33° ESE 16:23:02 10° SSE
Cosmos 2056 Rocket 4.3 16:17:11 10° SSE 16:21:50 30° ESE 16:26:30 10° NE
CSL-04 Debris 4.5 16:17:11 10° SSE 16:22:15 43° ENE 16:27:17 10° N
Okean 2 3.6 16:18:45 10° N 16:22:42 48° E 16:26:42 10° SSE
Cosmos 1441 Rocket 3.2 16:19:40 10° S 16:23:31 59° E 16:27:18 10° NNE
CZ-4 R/B 1.2 16:21:27 10° SSE 16:25:15 62° ENE 16:29:02 10° N
USA 32 4.4 16:21:17 10° NNE 16:26:09 40° E 16:31:01 10° SSE
Lacrosse 4 Rocket 2.2 16:22:43 10° N 16:26:14 29° ENE 16:29:46 10° SE
ARIANE 5 R/B 2.6 16:26:52 10° WSW 16:29:08 39° SSE 16:33:41 15° ESE
ARIANE 5 DEB (SYLDA) 3.2 16:23:24 10° W 16:29:17 65° S 16:31:59 18° ESE
GOES 2 Rocket 4.1 16:23:29 10° WSW 16:29:25 82° SSE 16:37:11 11° ENE
YAOGAN 6 2.5 16:26:21 10° SSE 16:29:52 59° E 16:33:25 10° N
Cosmos 1269 Rocket 4.0 16:27:27 10° N 16:32:45 84° ENE 16:38:03 10° SSE
OAO 1 4.5 16:27:55 10° NW 16:33:25 86° NE 16:38:14 14° SE
Cosmos 1624 Rocket 4.3 16:29:10 10° S 16:34:06 43° ESE 16:38:59 10° NNE
Lacrosse 5 3.4 16:35:02 10° SSE 16:38:05 16° ESE 16:38:05 16° ESE
SL-4 R/B 3.9 16:41:10 10° SSE 16:42:42 14° SE 16:42:42 14° SE
GPS 2-15 Rocket1 3.0 16:39:58 10° WSW 16:44:38 85° SSE 16:47:20 25° ENE
CZ-3B R/B 4.3 16:30:27 10° SW 16:49:41 38° SSE 16:56:58 21° ESE
COSMOS 2455 4.4 16:46:22 10° NNE 16:48:54 16° NE 16:48:54 16° NE
Cosmos 2322 Rocket 2.7 16:47:56 10° NNW 16:53:28 62° WSW 16:59:01 10° S
Orbus 7S 3.5 16:51:09 10° WNW 16:55:57 53° SSW 16:56:52 35° SSE
NOAA 11 4.4 16:51:11 10° SSE 16:56:25 46° ENE 17:01:37 10° N
SL-24 R/B 4.4 16:51:36 10° S 16:56:37 78° E 17:02:06 10° N
Cosmos 2074 Rocket 3.9 16:50:33 10° N 16:56:40 63° E 17:02:47 10° SSE
Cosmos 2082 4.1 16:52:19 10° S 16:57:37 40° ESE 17:00:39 23° NE
Cosmos 1939 Rocket 2.9 16:59:25 47° E 16:59:43 48° ENE 17:03:26 10° N
CZ-2C R/B 3.7 16:56:41 10° N 17:01:06 80° WNW 17:05:32 10° SSW
GPS 2-18 Rocket1 3.8 16:57:53 10° W 17:01:28 44° SSW 17:02:23 36° SSE
Cosmos 2237 4.3 16:55:56 10° N 17:01:30 53° ENE 17:04:46 24° SE
Cosmos 1378 3.0 16:57:52 10° N 17:01:36 87° E 17:05:20 10° S
ADEOS Rocket 3.7 16:56:50 10° NNE 17:04:14 49° ESE 17:11:32 10° S
Cosmos 1371 Rocket 4.4 16:59:35 10° SSW 17:04:46 65° WNW 17:09:59 10° N
CZ-2D R/B 3.0 17:05:47 26° SSE 17:07:51 85° E 17:11:38 10° N
Lacrosse 5 rocket 4.3 17:10:38 10° WNW 17:11:31 11° WNW 17:12:23 10° NW
Cosmos 2227 Rocket 2.4 17:09:57 10° SSW 17:15:33 69° WNW 17:21:09 10° N
Meteor 1-15 Rocket 4.1 17:10:07 10° S 17:15:45 90° E 17:21:29 10° N
Cosmos 2322 4.1 17:12:39 10° N 17:17:20 44° NE 17:17:20 44° NE
Cosmos 2154 Rocket 4.0 17:13:21 10° N 17:19:23 54° E 17:20:34 47° SE
Ariane H10 3.4 16:59:57 10° WSW 17:21:30 59° S 17:22:59 46° SE
Cosmos 2360 Rocket 2.3 17:18:37 10° NNW 17:24:15 75° WSW 17:28:14 20° S
ARIANE 5 R/B 2.5 17:19:42 10° WSW 17:24:04 32° SW 17:24:04 32° SW
CZ-3B R/B 4.4 16:39:00 10° WNW 17:25:06 87° NNE 17:30:17 40° ESE
Cosmos 2297 Rocket 3.1 17:21:03 10° SSW 17:26:28 47° WNW 17:31:52 10° N
IRS-1A Rocket 4.2 17:30:10 26° SSE 17:33:36 87° WSW 17:39:22 10° NNW
ASTEX 1 4.2 17:31:31 10° N 17:36:13 50° W 17:40:58 10° SSW
SWIFT 3.8 17:33:36 10° WNW 17:36:05 33° NW 17:36:05 33° NW
Cosmos 2251 Rocket 3.8 17:35:10 10° NNW 17:39:38 63° NNW 17:39:38 63° NNW
Kakehashi 4.0 17:40:28 10° NW 17:54:03 73° NNE 17:54:19 72° NE
Ariane Rocket 4.4 17:50:47 16° SSW 17:54:18 35° WSW 17:58:52 10° NW
USA 267 4.3 18:06:44 34° SSW 18:06:44 34° SSW 18:10:10 10° SSW
Lacrosse 5 4.4 18:16:13 10° SW 18:17:25 16° WSW 18:17:25 16° WSW
CZ-3B R/B 4.3 18:58:03 10° WSW 19:07:18 38° SW 19:07:18 38° SW
